Miscellaneous Local Product
Issued by NWS Hastings, NE

Home | Current Version | Previous Version | Graphics & Text | Print | Product List | Glossary On
Versions: 1 2 3 4 5 6 7 8 9 10 11 12 13 14 15 16 17 18 19 20 21 22 23 24 25 26 27 28 29 30 31 32 33 34 35 36 37 38 39 40 41 42 43 44 45 46 47 48 49 50
000
AXUS43 KGID 280402
MISGRI

GID CWA HOURLY WEATHER ROUNDUP
NATIONAL WEATHER SERVICE HASTINGS NE
1100 PM CDT MON MAR 27 2017

NOTE: "FAIR" INDICATES FEW OR NO CLOUDS BELOW 12,000 FEET WITH NO
SIGNIFICANT WEATHER AND/OR OBSTRUCTIONS TO VISIBILITY.

...SOUTH CENTRAL NEBRASKA...

CITY           SKY/WX    TMP DP  RH WIND       PRES   REMARKS
GRAND ISLAND   CLOUDY    41  40  96 S7        29.98S
HASTINGS       CLOUDY    43  40  89 SE6       29.99S
KEARNEY        CLOUDY    43  37  81 SE8       29.98S
ORD            PTCLDY    47  40  76 SE9       29.96R
YORK           CLOUDY    41  39  93 CALM      30.00S
AURORA         CLOUDY    43  41  92 S6        29.99S
LEXINGTON      CLOUDY    45  41  86 SE9       29.96R
HOLDREGE       CLOUDY    42  39  92 SE9       29.97R
HEBRON         PTCLDY    47  41  81 E3        30.00S

...NEBRASKA PANHANDLE...

CITY           SKY/WX    TMP DP  RH WIND       PRES   REMARKS
CHADRON        MOCLDY    46  37  71 N7        29.87R
ALLIANCE       CLOUDY    53  36  52 N9        29.86R
SCOTTSBLUFF    CLOUDY    55  37  50 NE7       29.85R
SIDNEY         CLOUDY    52  34  50 S16       29.86R

...WESTERN AND NORTH CENTRAL NEBRASKA...

CITY           SKY/WX    TMP DP  RH WIND       PRES   REMARKS
VALENTINE      CLEAR     51  40  65 SE13      29.93R
AINSWORTH      CLOUDY    49  42  78 S8        29.94R
ONEILL         CLOUDY    49  39  68 SE7       29.97R
BROKEN BOW     MOCLDY    46  41  82 SE9       29.95R
IMPERIAL       MOCLDY    51  42  71 SE17      29.89R
NORTH PLATTE   CLEAR     46  40  79 E9        29.92R
MCCOOK         CLEAR     48  40  73 SE13      29.93R

...EASTERN NEBRASKA...

CITY           SKY/WX    TMP DP  RH WIND       PRES   REMARKS
NORFOLK        CLEAR     42  37  82 S7        29.99R
SO SIOUX CITY  CLEAR     40  38  93 CALM      30.02R
TEKAMAH        CLEAR     40  36  86 E5        30.02R
COLUMBUS       CLOUDY    41  36  81 SE5       30.01S
ALBION         CLEAR     44  39  82 SE6       29.99R
OMAHA EPPLEY   CLOUDY    45  37  73 E3        30.02R
OFFUTT AFB     CLOUDY    49  40  71 E5        30.02R
MILLARD        CLOUDY    51  42  71 CALM      30.02R
LINCOLN        CLOUDY    41  38  89 CALM      30.03R
NEBRASKA CITY  CLOUDY    46  41  81 CALM      30.01S
BEATRICE       CLOUDY    43  40  90 E3        30.01R
FALLS CITY     CLOUDY    47  42  83 W5        30.01R

...NORTHERN KANSAS...

CITY           SKY/WX    TMP DP  RH WIND       PRES   REMARKS
GOODLAND       CLEAR     49  41  74 SE18      29.90R
HILL CITY      CLEAR     44  41  89 E6        29.97R
NORTON         CLEAR     45  37  76 SE9       29.95
PHILLIPSBURG   CLEAR     43  39  87 E6        29.98R
HAYS             N/A     44  41  89 E7        29.98R
RUSSELL        CLOUDY    44  42  93 E7        29.97R
CONCORDIA      CLOUDY    48  46  93 E5        30.00R
SALINA         CLOUDY    53  46  77 E5        29.99S
TOPEKA         CLOUDY    52  46  80 NE6       30.00R



USA.gov is the U.S. government's official web portal to all federal, state and local government web resources and services.